Regional Weather Roundup
Issued by NWS San Angelo, TX

Home | Current Version | Previous Version | Text Only | Print | Product List | Glossary On
Versions: 1 2 3 4 5 6 7 8 9 10 11 12 13 14 15 16 17 18 19 20 21 22 23 24 25 26 27 28 29 30 31 32 33 34 35 36 37 38 39 40 41 42 43 44 45 46 47 48 49 50
000
ASUS44 KSJT 021311
RWRSJT
WEST CENTRAL TEXAS REGIONAL WEATHER ROUNDUP
NATIONAL WEATHER SERVICE SAN ANGELO TX
800 AM CDT WED SEP 02 2015

NOTE: "FAIR" INDICATES FEW OR NO CLOUDS BELOW 12,000 FEET WITH NO
SIGNIFICANT WEATHER AND/OR OBSTRUCTIONS TO VISIBILITY.

TXZ049-054-064>066-071>073-076>078-098-099-113-114-127-128-139-140-
154-155-168>170-021400
...LOCATIONS ACROSS WEST CENTRAL TEXAS...

CITY           SKY/WX    TMP DP  RH WIND       PRES   REMARKS
SAN ANGELO     CLEAR     70  65  84 CALM      30.07R
ABILENE        CLEAR     72  65  78 SE8       30.08R
DYESS AFB      CLEAR     72  66  82 S6        30.06R
JUNCTION       MOCLDY    70  66  87 CALM      30.08R
SWEETWATER     CLEAR     71  64  78 S9        30.11R
BROWNWOOD      NOT AVBL
COLEMAN        PTSUNNY   70  65  85 CALM      30.09R
SONORA         CLOUDY    72  68  88 S7        30.13R
OZONA          CLOUDY    72  64  78 S10G16    30.11S
BRADY          CLEAR     70  68  94 SE3       30.08R
$$

TEXAS PANHANDLE/OKLAHOMA PANHANDLE

CITY           SKY/WX    TMP DP  RH WIND       PRES   REMARKS
AMARILLO       CLOUDY    70  54  56 SW10      30.09R
BORGER         CLOUDY    75  56  51 S7        30.07R
CANADIAN       PTCLDY    70  61  73 S6        30.04R
DALHART        LGT RAIN  64  58  80 SW8       30.10R
DUMAS          PTSUNNY   71  54  54 S10       30.07S
GUYMON         NOT AVBL
HEREFORD       CLOUDY    68  56  64 SW9       30.11R
PAMPA          CLOUDY    68  58  70 S7        30.09R
PERRYTON       MOCLDY    74  58  56 S9        30.04R
$$

SOUTHERN PANHANDLE/SOUTH PLAINS/ROLLING PLAINS

CITY           SKY/WX    TMP DP  RH WIND       PRES   REMARKS
LUBBOCK        PTCLDY    66  55  67 S7        30.10R
SNYDER         CLEAR     67  60  79 S5        30.10R
CHILDRESS      CLEAR     69  61  75 S9        30.04R
SEMINOLE       SUNNY     63  52  68 CALM      30.12R
$$

PERMIAN BASIN

CITY           SKY/WX    TMP DP  RH WIND       PRES   REMARKS
MIDLAND        CLEAR     68  57  68 S7        30.09R
ODESSA         CLEAR     70  58  65 S7        30.10R
WINK           CLEAR     68  57  68 SE7       30.07R
$$

FAR WEST/SOUTHWEST MOUNTAINS/TRANS PECOS

CITY           SKY/WX    TMP DP  RH WIND       PRES   REMARKS
ALPINE         SUNNY     62  53  72 S5        30.21R
DRYDEN           N/A     74  68  81 CALM      30.06R
EL PASO        MOCLDY    74  48  39 N5        30.09R
FORT STOCKTON  CLEAR     69  63  81 S10       30.08R
GUADALUPE PASS CLEAR     75  45  34 SW7       30.22S
MARFA          CLEAR     54  48  82 N6        30.18S
PECOS          SUNNY     66  54  66 E6        30.05R
$$

DALLAS/FORT WORTH METROPLEX

CITY           SKY/WX    TMP DP  RH WIND       PRES   REMARKS
DFW AIRPORT    SUNNY     75  69  81 S8        30.06R
FTW MEACHAM    SUNNY     74  69  85 S6        30.06R
DAL-EXECUTIVE  SUNNY     73  68  84 CALM      30.07R
GRAND PRAIRIE  SUNNY     73  70  88 S5        30.08R
ADDISON        SUNNY     75  66  73 S6        30.08R
MESQUITE       SUNNY     70  70 100 SE5       30.07R
LANCASTER      SUNNY     70  65  82 CALM      30.08R
$$

NORTH CENTRAL TEXAS

CITY           SKY/WX    TMP DP  RH WIND       PRES   REMARKS
SHRMAN/DENISON SUNNY     73  70  90 S6        30.09R
GAINESVILLE    SUNNY     72  66  82 SE6       30.09R
BRIDGEPORT     SUNNY     69  69 100 CALM      30.09R
DENTON         SUNNY     73  68  84 S5        30.07R
WAXAHACHIE     SUNNY     69  69  99 SE5       30.09R
GRANBURY       SUNNY     73  67  83 SE5       30.08R
$$

WESTERN NORTH TEXAS

CITY           SKY/WX    TMP DP  RH WIND       PRES   REMARKS
WICHITA FALLS  CLEAR     72  66  81 S8        30.04R
VERNON         SUNNY     72  62  68 S3        30.05R
BRECKENRIDGE   SUNNY     73  64  72 S5        30.06R
COMANCHE       CLEAR     67  67 100 CALM      30.08R
$$

CENTRAL AND SOUTH CENTRAL TEXAS

CITY           SKY/WX    TMP DP  RH WIND       PRES   REMARKS
AUSTIN/BERGSTM CLOUDY    70  69  97 CALM      30.06R FOG
WACO           MOSUNNY   75  70  84 S10       30.07R
HILLSBORO      SUNNY     71  68  90 SE6       30.08R
TEMPLE         CLOUDY    72  66  83 SE3       30.07R
KILLEEN-GRAY   SUNNY     70  68  93 SE3       30.07R
FORT HOOD      SUNNY     70  69  96 E1        30.06R
GEORGETOWN     PTSUNNY   70  66  88 CALM      30.07R
LAGO VISTA     CLOUDY    71  69  93 CALM      30.08S FOG
SAN MARCOS     PTSUNNY   70  66  88 CALM      30.07R
NEW BRAUNFELS  CLOUDY    73  69  87 NE6       30.04R
RANDOLPH AFB   PTCLDY    72  70  92 NE5       30.05R
SAN ANTONIO    PTCLDY    75  69  81 NE5       30.05R
STINSON        CLOUDY    74  70  87 E5        30.03R
PLEASANTON     NOT AVBL
LA GRANGE      MOSUNNY   73  72  98 CALM      30.04R
GIDDINGS       MOSUNNY   71  70  96 CALM      30.09R FOG
$$

EAST TEXAS

CITY           SKY/WX    TMP DP  RH WIND       PRES   REMARKS
PARIS          SUNNY     72  63  73 SE5       30.10R
CLARKSVILLE    NOT AVBL
TYLER          SUNNY     73  68  84 CALM      30.08R
LONGVIEW       SUNNY     73  70  90 CALM      30.08R
PALESTINE      SUNNY     71  69  96 CALM      30.08R
NACOGDOCHES    CLOUDY    72  70  94 CALM      30.08R
$$

TEXAS HILL COUNTRY AND EDWARDS PLATEAU

CITY           SKY/WX    TMP DP  RH WIND       PRES   REMARKS
LLANO          CLOUDY    70  68  94 CALM      30.10R
HORSESHOE BAY  FAIR      69  67  93 CALM      30.07R
KERRVILLE      CLOUDY    72  69  90 E3        30.08S
FREDERICKSBRG  PTCLDY    68  66  93 CALM      30.08S
ROCKSPRINGS    CLOUDY    72  66  83 S8        30.12R
HONDO          CLOUDY    74  70  87 E5        30.07R
UVALDE         PTSUNNY   74  70  87 E5        30.05R
DEL RIO        CLOUDY    77  70  79 E9        30.02R
$$

SOUTHEAST TEXAS

CITY           SKY/WX    TMP DP  RH WIND       PRES   REMARKS
COLLEGE STN    MOSUNNY   72  69  90 E7        30.06R
CALDWELL       PTSUNNY   70  70 100 CALM      30.09R FOG
CROCKETT       SUNNY     70  68  94 CALM      30.10S
BRENHAM        MOSUNNY   73  73  98 E5        30.05F
HUNTSVILLE     MOSUNNY   73  72  96 E3        30.07R
CONROE         PTSUNNY   72  70  93 CALM      30.06S
HOUSTON BUSH   PTSUNNY   74  72  93 CALM      30.04F
HOUSTON HOBBY  PTSUNNY   73  71  93 SE3       30.03S
PERLAND        PTSUNNY   74  71  91 CALM      30.04F
WHARTON        CLOUDY    73  71  95 NE7       30.04S
$$

THE UPPER TEXAS COAST

CITY           SKY/WX    TMP DP  RH WIND       PRES   REMARKS
ORANGE         CLOUDY   N/A N/A N/A CALM      30.07R HAZE
PORT ARTHUR    CLOUDY    76  74  93 NE7       30.04R FOG
GALVESTON      HVY RAIN  75  73  93 NW9       30.05R FOG
ANGLETON       LGT RAIN  73  71  93 CALM      30.03S
BAY CITY       RAIN      73  73 100 E9        30.03F
$$

TEXAS COASTAL BEND, RIO GRANDE PLAINS DEEP SOUTH TEXAS

CITY           SKY/WX    TMP DP  RH WIND       PRES   REMARKS
VICTORIA       CLOUDY    73  73 100 NE6       30.02S
BEEVILLE       FAIR      70  70 100 NE5       30.01R
ROCKPORT       SUNNY     77  75  93 N5        29.99R
PORT ARANSAS   PTSUNNY   80  76  89 N7        29.98S
PORT LAVACA    LGT RAIN  75  73  95 NW6       30.02R
CORPUS CHRISTI MOSUNNY   77  73  87 N7        29.99R
KINGSVILLE NAS MOSUNNY   74  74 100 CALM      29.99R
COTULLA        CLOUDY    77  73  87 E9        30.02R
LAREDO         CLEAR     76  74  93 E7        30.01R
BROWNSVILLE    SUNNY     77  76  96 E3        29.97R
PORT ISABEL    SUNNY     80  77  90 SE3       29.96R
HEBBRONVILLE   NOT AVBL
MCALLEN        CLEAR     81  76  84 E5        29.98R
WESLACO        CLEAR     75  73  93 CALM      29.97R FOG
FALFURRIAS     PTSUNNY   74  73  94 CALM      29.99R
EDINBURG       SUNNY     76  74  91 CALM      29.98R
$$


USA.gov is the U.S. government's official web portal to all federal, state and local government web resources and services.